Accueil
METAR-TAF:

METAR-TAF

Aéroports :

Millinocket Municipal Airport

Millinocket, Maine, États-Unis

latitude: 45-38-52N, longitude: 068-41-31W, altitude: 124 m

Observation

Le bulletin a été fait il y a 36 minutes, à 14:53 UTC
Vent 9 kt de ouest/nord-ouest
Température -14°C
Humidité 66%
Pression 1000 hPa
Visibilité: 14.5 km
Ciel couvert à une hauteur de 6000 ft

METAR: KMLT 211453Z AUTO 30009KT 9SM OVC060 M14/M19 A2954 RMK AO2 SNE25 SLP016 P0000 60000 T11391189 51018

Heure: 10:29 (15:29 UTC)


TAF: absent

Observations et prévisions météorologiques de plus de 4000 aéroports (messages METAR et TAF).

Les stations disponibles sont représentées par des disques jaunes et rouges sur la carte.

Passer la souris dessus pour voir le nom de la station.

Cliquer dessus pour voir les observations et prévisions météorologiques.

Pour changer de carte: cliquez sur les boutons verts avec une croix noire pour zoomer, sur le bouton vert avec un tiret pour effectuer un zoom arrière, ou sur les flèches vertes pour les cartes adjacentes.


METAR-TAF: